Location: Plum
(40.5000°N, 79.7500°W)
Time: 13:55:56
(UTC-04:00)

MOZ.5/SAFIR/RUBIN 5/SL-8 - Visible Passes

Search period start: 31 August 2015 00:00
Search period end: 10 September 2015 00:00
Orbit: 678 x 708 km, 97.9° (Epoch: 30 August)

Date Brightness Start Highest point End Pass type
(mag) Time Alt. Az. Time Alt. Az. Time Alt. Az.
31 Aug 6.3 04:47:32 10° ESE 04:51:05 23° ENE 04:54:43 10° NNE visible
01 Sep 4.5 05:26:16 10° SSE 05:30:48 56° ENE 05:35:22 10° N visible
02 Sep 6.8 04:30:52 10° E 04:33:29 16° ENE 04:36:18 10° NNE visible
02 Sep 3.8 06:06:09 10° S 06:10:43 55° W 06:15:18 10° NNW visible
03 Sep 5.4 05:08:54 10° SE 05:13:08 37° ENE 05:17:25 10° N visible
04 Sep 7.2 04:15:19 10° ENE 04:15:57 10° ENE 04:16:51 10° NE visible
04 Sep 3.7 05:48:18 10° SSE 05:52:57 85° WSW 05:57:37 10° NNW visible
05 Sep 6.1 04:51:46 10° ESE 04:55:30 25° ENE 04:59:19 10° NNE visible
06 Sep 4.3 05:30:40 10° SSE 05:35:15 63° ENE 05:39:51 10° N visible
07 Sep 6.6 04:34:58 10° ESE 04:37:54 17° ENE 04:40:59 10° NNE visible
07 Sep 4.0 06:10:42 10° S 06:15:12 49° W 06:19:41 10° NNW visible
08 Sep 5.1 05:13:14 10° SE 05:17:34 41° ENE 05:21:56 10° N visible
09 Sep 7.0 04:18:50 10° E 04:20:20 12° ENE 04:22:05 10° NE visible
09 Sep 3.7 05:52:47 10° S 05:57:25 75° WSW 06:02:04 10° NNW visible
